Time,TemperatureF,DewpointF,PressureIn,WindDirection,WindDirectionDegrees,WindSpeedMPH,WindSpeedGustMPH,Humidity,HourlyPrecipIn,Conditions,Clouds,dailyrainin,SolarRadiationWatts/m^2,SoftwareType,DateUTC
2013-10-31 00:02:00,49.7,27.0,30.10,SW,234,1.0,4.0,42,0.00,,,0.00,0,weatherlink.com 1.10,2013-10-31 07:02:00,
2013-10-31 00:17:00,49.7,27.0,30.10,SW,234,1.0,3.0,42,0.00,,,0.00,0,weatherlink.com 1.10,2013-10-31 07:17:00,
2013-10-31 00:32:00,49.7,27.0,30.10,SW,234,1.0,3.0,41,0.00,,,0.00,0,weatherlink.com 1.10,2013-10-31 07:32:00,
2013-10-31 00:47:00,49.5,27.0,30.10,SW,234,1.0,4.0,42,0.00,,,0.00,0,weatherlink.com 1.10,2013-10-31 07:47:00,
2013-10-31 01:02:00,47.9,26.0,30.10,SW,234,1.0,1.0,43,0.00,,,0.00,0,weatherlink.com 1.10,2013-10-31 08:02:00,
2013-10-31 01:18:00,46.3,27.0,30.11,SW,234,0.0,2.0,47,0.00,,,0.00,0,weatherlink.com 1.10,2013-10-31 08:18:00,
2013-10-31 01:32:00,46.4,27.0,30.11,SW,234,0.0,1.0,47,0.00,,,0.00,0,weatherlink.com 1.10,2013-10-31 08:32:00,
2013-10-31 01:47:00,45.2,26.0,30.12,SW,234,0.0,1.0,47,0.00,,,0.00,0,weatherlink.com 1.10,2013-10-31 08:47:00,
2013-10-31 02:02:00,43.9,27.0,30.12,SW,234,1.0,1.0,51,0.00,,,0.00,0,weatherlink.com 1.10,2013-10-31 09:02:00,
2013-10-31 02:17:00,44.1,27.0,30.12,SW,234,0.0,2.0,51,0.00,,,0.00,0,weatherlink.com 1.10,2013-10-31 09:17:00,
2013-10-31 02:32:00,43.4,26.0,30.12,SW,234,0.0,1.0,50,0.00,,,0.00,0,weatherlink.com 1.10,2013-10-31 09:32:00,
2013-10-31 02:48:00,43.4,27.0,30.12,SW,234,0.0,1.0,52,0.00,,,0.00,0,weatherlink.com 1.10,2013-10-31 09:48:00,
2013-10-31 03:03:00,43.7,27.0,30.12,SW,234,0.0,3.0,52,0.00,,,0.00,0,weatherlink.com 1.10,2013-10-31 10:03:00,
2013-10-31 03:18:00,43.9,27.0,30.12,SW,234,0.0,0.0,52,0.00,,,0.00,0,weatherlink.com 1.10,2013-10-31 10:18:00,
2013-10-31 03:33:00,44.5,27.0,30.12,SW,234,0.0,1.0,51,0.00,,,0.00,0,weatherlink.com 1.10,2013-10-31 10:33:00,
2013-10-31 03:48:00,45.2,27.0,30.12,SW,234,0.0,1.0,49,0.00,,,0.00,0,weatherlink.com 1.10,2013-10-31 10:48:00,
2013-10-31 04:03:00,44.9,27.0,30.12,SW,234,1.0,2.0,49,0.00,,,0.00,0,weatherlink.com 1.10,2013-10-31 11:03:00,
2013-10-31 04:18:00,44.4,26.0,30.12,SW,234,0.0,0.0,49,0.00,,,0.00,0,weatherlink.com 1.10,2013-10-31 11:18:00,
2013-10-31 04:33:00,43.0,26.0,30.13,SW,234,0.0,1.0,51,0.00,,,0.00,0,weatherlink.com 1.10,2013-10-31 11:33:00,
2013-10-31 04:48:00,41.2,26.0,30.13,SW,234,0.0,1.0,54,0.00,,,0.00,0,weatherlink.com 1.10,2013-10-31 11:48:00,
2013-10-31 05:03:00,40.8,26.0,30.13,SW,234,0.0,2.0,56,0.00,,,0.00,0,weatherlink.com 1.10,2013-10-31 12:03:00,
2013-10-31 05:18:00,41.0,26.0,30.13,SW,234,0.0,1.0,55,0.00,,,0.00,0,weatherlink.com 1.10,2013-10-31 12:18:00,
2013-10-31 05:33:00,41.5,26.0,30.14,SW,234,0.0,1.0,54,0.00,,,0.00,0,weatherlink.com 1.10,2013-10-31 12:33:00,
2013-10-31 05:48:00,40.9,26.0,30.14,SW,234,0.0,2.0,56,0.00,,,0.00,0,weatherlink.com 1.10,2013-10-31 12:48:00,
2013-10-31 06:03:00,42.2,26.0,30.14,SW,234,0.0,1.0,53,0.00,,,0.00,0,weatherlink.com 1.10,2013-10-31 13:03:00,
2013-10-31 06:18:00,42.8,26.0,30.15,SW,234,0.0,2.0,52,0.00,,,0.00,0,weatherlink.com 1.10,2013-10-31 13:18:00,
2013-10-31 06:33:00,41.0,25.0,30.15,SW,234,0.0,2.0,54,0.00,,,0.00,0,weatherlink.com 1.10,2013-10-31 13:33:00,
2013-10-31 06:48:00,41.8,26.0,30.15,SW,234,0.0,0.0,54,0.00,,,0.00,7,weatherlink.com 1.10,2013-10-31 13:48:00,
2013-10-31 07:03:00,42.7,26.0,30.16,SW,234,1.0,2.0,53,0.00,,,0.00,14,weatherlink.com 1.10,2013-10-31 14:03:00,
2013-10-31 07:18:00,43.3,27.0,30.16,SW,234,2.0,2.0,52,0.00,,,0.00,77,weatherlink.com 1.10,2013-10-31 14:18:00,
2013-10-31 07:33:00,45.5,28.0,30.16,SW,234,0.0,1.0,50,0.00,,,0.00,130,weatherlink.com 1.10,2013-10-31 14:33:00,
2013-10-31 07:48:00,48.3,28.0,30.17,SW,234,1.0,1.0,46,0.00,,,0.00,193,weatherlink.com 1.10,2013-10-31 14:48:00,
2013-10-31 08:03:00,51.0,28.0,30.17,SW,234,1.0,2.0,42,0.00,,,0.00,255,weatherlink.com 1.10,2013-10-31 15:03:00,
2013-10-31 08:18:00,51.4,28.0,30.18,SW,234,2.0,4.0,40,0.00,,,0.00,308,weatherlink.com 1.10,2013-10-31 15:18:00,
2013-10-31 08:33:00,52.6,27.0,30.18,SW,234,2.0,4.0,38,0.00,,,0.00,357,weatherlink.com 1.10,2013-10-31 15:33:00,
2013-10-31 08:48:00,54.0,28.0,30.19,SW,234,0.0,4.0,37,0.00,,,0.00,401,weatherlink.com 1.10,2013-10-31 15:48:00,
2013-10-31 09:03:00,55.1,28.0,30.19,SW,234,1.0,3.0,35,0.00,,,0.00,445,weatherlink.com 1.10,2013-10-31 16:03:00,
2013-10-31 09:19:00,56.7,28.0,30.19,SW,234,0.0,3.0,33,0.00,,,0.00,489,weatherlink.com 1.10,2013-10-31 16:19:00,
2013-10-31 09:34:00,59.3,28.0,30.18,SW,234,0.0,3.0,30,0.00,,,0.00,526,weatherlink.com 1.10,2013-10-31 16:34:00,
2013-10-31 09:49:00,60.9,28.0,30.18,SW,234,4.0,4.0,29,0.00,,,0.00,561,weatherlink.com 1.10,2013-10-31 16:49:00,
2013-10-31 10:04:00,62.3,29.0,30.17,SW,234,3.0,4.0,28,0.00,,,0.00,594,weatherlink.com 1.10,2013-10-31 17:04:00,
2013-10-31 10:19:00,63.3,29.0,30.17,SW,232,1.0,6.0,27,0.00,,,0.00,621,weatherlink.com 1.10,2013-10-31 17:19:00,
2013-10-31 10:34:00,63.9,28.0,30.17,SW,222,0.0,5.0,26,0.00,,,0.00,645,weatherlink.com 1.10,2013-10-31 17:34:00,
2013-10-31 10:49:00,65.8,29.0,30.16,SW,223,2.0,5.0,25,0.00,,,0.00,666,weatherlink.com 1.10,2013-10-31 17:49:00,
2013-10-31 11:04:00,67.3,28.0,30.16,SW,224,1.0,5.0,23,0.00,,,0.00,684,weatherlink.com 1.10,2013-10-31 18:04:00,
2013-10-31 11:19:00,68.2,29.0,30.15,SW,224,0.0,5.0,23,0.00,,,0.00,696,weatherlink.com 1.10,2013-10-31 18:19:00,
2013-10-31 11:34:00,69.5,30.0,30.14,SW,224,5.0,7.0,23,0.00,,,0.00,707,weatherlink.com 1.10,2013-10-31 18:34:00,
2013-10-31 11:49:00,68.7,28.0,30.14,SW,225,0.0,7.0,22,0.00,,,0.00,712,weatherlink.com 1.10,2013-10-31 18:49:00,
2013-10-31 12:04:00,69.2,28.0,30.13,SW,222,3.0,5.0,21,0.00,,,0.00,714,weatherlink.com 1.10,2013-10-31 19:04:00,
2013-10-31 12:19:00,71.4,28.0,30.12,SSW,213,3.0,5.0,20,0.00,,,0.00,710,weatherlink.com 1.10,2013-10-31 19:19:00,
2013-10-31 12:34:00,71.6,27.0,30.11,SSW,211,3.0,6.0,19,0.00,,,0.00,703,weatherlink.com 1.10,2013-10-31 19:34:00,
2013-10-31 12:49:00,71.5,27.0,30.10,SSW,211,1.0,7.0,19,0.00,,,0.00,693,weatherlink.com 1.10,2013-10-31 19:49:00,
2013-10-31 13:04:00,72.7,27.0,30.09,WSW,246,2.0,9.0,18,0.00,,,0.00,677,weatherlink.com 1.10,2013-10-31 20:04:00,
2013-10-31 13:34:00,74.4,24.0,30.08,WSW,246,2.0,8.0,15,0.00,,,0.00,636,weatherlink.com 1.10,2013-10-31 20:34:00,
2013-10-31 13:50:00,74.5,24.0,30.07,WSW,237,9.0,9.0,15,0.00,,,0.00,612,weatherlink.com 1.10,2013-10-31 20:50:00,
2013-10-31 14:05:00,74.2,22.0,30.07,SW,236,2.0,8.0,14,0.00,,,0.00,580,weatherlink.com 1.10,2013-10-31 21:05:00,
2013-10-31 14:20:00,74.6,22.0,30.07,WSW,240,4.0,9.0,14,0.00,,,0.00,547,weatherlink.com 1.10,2013-10-31 21:20:00,
2013-10-31 14:35:00,74.2,22.0,30.07,WSW,240,3.0,10.0,14,0.00,,,0.00,512,weatherlink.com 1.10,2013-10-31 21:35:00,
2013-10-31 14:50:00,74.6,22.0,30.06,SW,236,3.0,9.0,14,0.00,,,0.00,469,weatherlink.com 1.10,2013-10-31 21:50:00,
2013-10-31 15:05:00,74.6,19.0,30.06,SW,221,4.0,10.0,12,0.00,,,0.00,431,weatherlink.com 1.10,2013-10-31 22:05:00,
2013-10-31 15:20:00,74.7,17.0,30.06,West,261,3.0,9.0,11,0.00,,,0.00,388,weatherlink.com 1.10,2013-10-31 22:20:00,
2013-10-31 15:35:00,74.7,15.0,30.06,WSW,244,4.0,9.0,10,0.00,,,0.00,345,weatherlink.com 1.10,2013-10-31 22:35:00,
2013-10-31 15:50:00,74.4,12.0,30.05,WSW,242,5.0,10.0,9,0.00,,,0.00,295,weatherlink.com 1.10,2013-10-31 22:50:00,
2013-10-31 16:05:00,74.3,18.0,30.05,SW,219,2.0,10.0,12,0.00,,,0.00,248,weatherlink.com 1.10,2013-10-31 23:05:00,
2013-10-31 16:20:00,73.7,23.0,30.05,SW,221,2.0,9.0,15,0.00,,,0.00,188,weatherlink.com 1.10,2013-10-31 23:20:00,
2013-10-31 16:35:00,72.7,24.0,30.05,SW,235,4.0,11.0,16,0.00,,,0.00,130,weatherlink.com 1.10,2013-10-31 23:35:00,
2013-10-31 16:50:00,72.0,23.0,30.05,WSW,238,7.0,11.0,16,0.00,,,0.00,72,weatherlink.com 1.10,2013-10-31 23:50:00,
2013-10-31 17:05:00,70.9,22.0,30.05,WSW,240,3.0,9.0,16,0.00,,,0.00,32,weatherlink.com 1.10,2013-11-01 00:05:00,
2013-10-31 17:20:00,69.3,21.0,30.05,SW,223,3.0,9.0,16,0.00,,,0.00,14,weatherlink.com 1.10,2013-11-01 00:20:00,
2013-10-31 17:35:00,67.6,21.0,30.05,SW,223,1.0,5.0,17,0.00,,,0.00,0,weatherlink.com 1.10,2013-11-01 00:35:00,
2013-10-31 17:50:00,66.2,21.0,30.06,SW,223,3.0,6.0,18,0.00,,,0.00,0,weatherlink.com 1.10,2013-11-01 00:50:00,
2013-10-31 18:05:00,65.0,22.0,30.06,SW,223,1.0,5.0,19,0.00,,,0.00,0,weatherlink.com 1.10,2013-11-01 01:05:00,
2013-10-31 18:20:00,64.2,23.0,30.06,SW,223,0.0,6.0,21,0.00,,,0.00,0,weatherlink.com 1.10,2013-11-01 01:20:00,
2013-10-31 18:35:00,63.4,25.0,30.07,SW,223,0.0,5.0,23,0.00,,,0.00,0,weatherlink.com 1.10,2013-11-01 01:35:00,
2013-10-31 18:50:00,62.2,25.0,30.07,SW,223,0.0,1.0,24,0.00,,,0.00,0,weatherlink.com 1.10,2013-11-01 01:50:00,
2013-10-31 19:05:00,60.9,25.0,30.07,SW,223,0.0,0.0,25,0.00,,,0.00,0,weatherlink.com 1.10,2013-11-01 02:05:00,
2013-10-31 19:20:00,59.0,24.0,30.07,SW,223,2.0,3.0,26,0.00,,,0.00,0,weatherlink.com 1.10,2013-11-01 02:20:00,
2013-10-31 19:35:00,57.5,24.0,30.08,SW,223,2.0,2.0,27,0.00,,,0.00,0,weatherlink.com 1.10,2013-11-01 02:35:00,
2013-10-31 19:50:00,56.0,23.0,30.08,SW,223,0.0,2.0,28,0.00,,,0.00,0,weatherlink.com 1.10,2013-11-01 02:50:00,
2013-10-31 20:05:00,55.4,23.0,30.09,SW,223,0.0,3.0,29,0.00,,,0.00,0,weatherlink.com 1.10,2013-11-01 03:05:00,
2013-10-31 20:20:00,55.1,24.0,30.09,SW,223,2.0,3.0,30,0.00,,,0.00,0,weatherlink.com 1.10,2013-11-01 03:20:00,
2013-10-31 20:35:00,54.6,24.0,30.09,SW,223,2.0,4.0,31,0.00,,,0.00,0,weatherlink.com 1.10,2013-11-01 03:35:00,
2013-10-31 20:50:00,54.1,25.0,30.10,SW,221,1.0,4.0,32,0.00,,,0.00,0,weatherlink.com 1.10,2013-11-01 03:50:00,
2013-10-31 21:05:00,53.8,25.0,30.11,SW,221,2.0,3.0,33,0.00,,,0.00,0,weatherlink.com 1.10,2013-11-01 04:05:00,
2013-10-31 21:20:00,53.5,25.0,30.11,SW,221,2.0,2.0,33,0.00,,,0.00,0,weatherlink.com 1.10,2013-11-01 04:20:00,
2013-10-31 21:35:00,53.5,25.0,30.11,SW,221,0.0,1.0,33,0.00,,,0.00,0,weatherlink.com 1.10,2013-11-01 04:35:00,
2013-10-31 21:50:00,53.3,25.0,30.12,SW,221,0.0,0.0,33,0.00,,,0.00,0,weatherlink.com 1.10,2013-11-01 04:50:00,
2013-10-31 22:05:00,53.2,25.0,30.12,SW,221,1.0,2.0,33,0.00,,,0.00,0,weatherlink.com 1.10,2013-11-01 05:05:00,
2013-10-31 22:20:00,53.0,24.0,30.12,SW,221,1.0,2.0,33,0.00,,,0.00,0,weatherlink.com 1.10,2013-11-01 05:20:00,
2013-10-31 22:35:00,53.8,24.0,30.13,SW,221,2.0,2.0,32,0.00,,,0.00,0,weatherlink.com 1.10,2013-11-01 05:35:00,
2013-10-31 22:50:00,54.1,25.0,30.14,SW,221,3.0,3.0,32,0.00,,,0.00,0,weatherlink.com 1.10,2013-11-01 05:50:00,
2013-10-31 23:05:00,53.8,24.0,30.13,SW,221,3.0,3.0,31,0.00,,,0.00,0,weatherlink.com 1.10,2013-11-01 06:05:00,
2013-10-31 23:20:00,53.7,24.0,30.13,SW,221,2.0,5.0,31,0.00,,,0.00,0,weatherlink.com 1.10,2013-11-01 06:20:00,
2013-10-31 23:35:00,53.5,23.0,30.13,SW,221,0.0,4.0,31,0.00,,,0.00,0,weatherlink.com 1.10,2013-11-01 06:35:00,
2013-10-31 23:50:00,53.3,24.0,30.13,SW,221,2.0,3.0,32,0.00,,,0.00,0,weatherlink.com 1.10,2013-11-01 06:50:00,